Simultaneous Nadir Overpasses (SNOs) Predictions

Prediction of SNOs between AQUA and NOAA-19 Satellite Orbit:

Table of predicted SNOs for the next 14.0 days since TLE Epoch: 6/22/2012
Index Date (AQUA) Time (AQUA) AQUA Lat,Lon Date (NOAA-19) Time (NOAA-19) NOAA-19 Lat,Lon Distance(km) Time Diff (sec)
1 06/24/2012 07:56:57 46.03, -86.80 06/24/2012 07:56:29 46.02, -86.72 6.64 28
2 06/24/2012 08:43:39 -55.90, 85.20 06/24/2012 08:44:45 -55.90, 85.22 0.93 66
3 06/26/2012 12:41:01 46.64,-157.63 06/26/2012 12:40:59 46.64,-157.63 0.22 2
4 06/26/2012 13:17:39 -81.02, 119.49 06/26/2012 13:18:52 -80.35, 117.65 81.51 73
5 06/28/2012 16:36:02 -46.03, -36.58 06/28/2012 16:34:55 -45.98, -36.33 20.01 67
6 06/28/2012 17:24:10 50.51, 132.86 06/28/2012 17:24:32 50.51, 132.88 1.56 22
7 06/30/2012 21:20:16 -46.03,-107.64 06/30/2012 21:19:35 -45.98,-107.49 12.65 41
8 06/30/2012 22:07:43 52.92, 62.88 06/30/2012 22:08:30 52.92, 62.89 0.12 47
9 07/03/2012 02:04:30 -46.01,-178.71 07/03/2012 02:04:14 -46.02,-178.64 5.40 16
10 07/03/2012 02:51:18 55.20, -7.05 07/03/2012 02:52:30 55.20, -7.06 0.85 72
11 07/05/2012 06:48:14 -47.76, 110.90 07/05/2012 06:48:23 -47.77, 110.92 1.39 9




NCC Satellite Simultaneous Nadir Overpasses (SNOs) Prediction Service
